Regional Weather Roundup
Issued by NWS

Home | Current Version | Previous Version | Text Only | Print | Product List | Glossary On
Versions: 1 2 3 4 5 6 7 8 9 10 11 12 13 14 15 16 17 18
000
ASPQ40 PGUM 251413
RWRPQ
WEATHER ROUNDUP FOR THE MARIANAS AND MICRONESIA
NATIONAL WEATHER SERVICE TIYAN GU
1200 AM CHST SUN FEB 26 2017

GUZ001>004-251500-
MARIANA ISLANDS-

CITY           SKY/WX    TMP DP  RH WIND       PRES   REMARKS
GUAM AIRPORT   PTCLDY    81  75  83 E7        29.92S
ANDERSEN AFB   PTCLDY    77  73  88 E14       29.93S
ROTA AIRPORT   NOT AVBL
TINIAN AP      NOT AVBL
SAIPAN AP      PTCLDY    79  75  89 E14       29.92S

$$

PMZ161-251500-
REPUBLIC OF PALAU-

CITY           SKY/WX    TMP DP  RH WIND       PRES   REMARKS
KOROR AP       NOT AVBL
KOROR WSO      CLOUDY    79  75  89 NE8       29.80S

$$

PMZ171>174-251500-
FEDERATED STATES OF MICRONESIA-

CITY           SKY/WX    TMP DP  RH WIND       PRES   REMARKS
YAP AIRPORT    CLOUDY    77  75  94 VRB6      29.83S
CHUUK AP       PTCLDY    82  77  83 NE13      29.78F HX  91
POHNPEI AP     CLOUDY    82  77  83 E14       29.75F HX  91
POHNPEI WSO    CLOUDY    84  75  74 E7        29.79F HX  92
KOSRAE AP      CLOUDY    81  77  89 NE17      29.74F

$$

PMZ181-251500-
REPUBLIC OF THE MARSHALL ISLANDS-

CITY           SKY/WX    TMP DP  RH WIND       PRES   REMARKS
KWAJALEIN AP   PTCLDY    81  73  78 E22       29.81F
MAJURO AP      NOT AVBL
MAJURO WSO     MOCLDY    82  73  74 NE12      29.78F

$$





USA.gov is the U.S. government's official web portal to all federal, state and local government web resources and services.